Location: Panchi� Ziano
(46.2833°N, 11.5667°E)
Time: 02:54:44
(UTC+00:00)

Daily predictions for brighter satellites

Satellite Brightness Start Highest point End
(mag) Time Altitude Azimuth Time Altitude Azimuth Time Altitude Azimuth
SL-16 R/B 4.1 01:04:18 25° NNW 01:04:18 25° NNW 01:06:43 10° NNW
ADEOS II 3.9 01:01:35 10° NNE 01:04:24 28° NE 01:04:24 28° NE
Cosmos 1697 Rocket 4.1 01:14:51 35° NNE 01:14:51 35° NNE 01:18:00 10° NNE
Cosmos 1980 Rocket 3.5 01:20:37 37° ENE 01:20:37 37° ENE 01:24:20 10° NE
Cosmos 2263 Rocket 3.6 01:16:44 10° NNW 01:21:55 35° NE 01:27:06 10° ESE
USA 234 4.2 01:18:57 10° E 01:25:03 44° NNE 01:28:11 27° NW
SL-16 R/B 4.1 01:38:10 20° ESE 01:39:19 22° E 01:43:32 10° NE
Cosmos 1238 Rocket 4.3 01:44:04 10° N 01:50:33 62° ENE 01:51:14 58° ESE
Resurs 1-4 Rocket 3.8 01:49:30 10° N 01:51:58 24° NNW 01:51:58 24° NNW
CZ-2D R/B 3.7 01:52:43 10° N 01:55:14 24° NNW 01:55:14 24° NNW
ASTEX 1 4.1 01:54:37 10° NNE 01:59:09 51° ENE 01:59:09 51° ENE
Nadezhda 3 Rocket 4.2 02:01:33 58° NNW 02:01:33 58° NNW 02:06:39 10° N
SJ 16-02 3.6 02:01:45 10° NNW 02:03:00 18° N 02:03:00 18° N
Cosmos 1605 Rocket 4.4 02:02:27 10° N 02:08:49 61° ENE 02:14:28 13° SSE
Gbstr 26 Del rocket 4.3 02:06:54 50° WNW 02:09:25 87° SSW 02:16:59 10° ESE
Cosmos 2228 Rocket 4.1 02:10:31 45° NE 02:10:31 45° NE 02:13:56 10° NNE
Cosmos 1535 Rocket 4.4 02:04:36 10° N 02:11:03 88° E 02:12:01 67° S
Lacrosse 5 2.8 02:13:50 39° N 02:13:50 39° N 02:18:07 10° NE
ATLAS 5 CENTAUR R/B 4.2 02:16:15 12° NNW 02:17:09 13° NNW 02:19:24 10° NNE
H-2A R/B 3.6 02:17:18 10° SE 02:21:19 35° ENE 02:25:25 10° N
Cosmos 2278 4.0 02:23:24 52° NW 02:23:24 52° NW 02:28:34 10° NNE
ARIANE 5 R/B 2.4 02:20:38 10° NNE 02:25:30 81° N 02:25:30 81° N
Cosmos 1763 Rocket 4.4 02:24:23 35° SSE 02:26:02 46° ESE 02:31:06 10° NNE
IRS-P3 4.3 02:20:58 10° N 02:25:43 60° NW 02:25:43 60° NW
NOSS 3-4 (A) 4.5 02:19:49 10° NW 02:26:35 54° NE 02:34:03 10° ESE
NOSS 3-4 (C) 4.5 02:19:56 10° NW 02:26:41 54° NE 02:34:09 10° ESE
Meteor 1-14 Rocket 4.5 02:21:10 10° NNW 02:25:32 52° NW 02:25:32 52° NW
SL-4 R/B 3.0 02:27:59 45° ESE 02:27:59 45° ESE 02:32:04 10° ENE
NOAA 9 4.5 02:25:30 10° NNE 02:30:57 88° WNW 02:31:30 73° SSW
USA 267 3.2 02:25:48 10° NE 02:32:23 81° SE 02:34:08 53° SW
CZ-2C R/B 3.6 02:29:06 10° NNE 02:32:41 47° E 02:32:41 47° E
USA 305 4.1 02:34:11 34° N 02:34:11 34° N 02:37:54 10° NE
NOSS 3-3 (A) 3.8 02:34:42 63° WSW 02:35:43 81° NW 02:42:26 10° NE
NOSS 3-3 (C) 3.8 02:34:50 64° WSW 02:35:50 81° NW 02:42:31 10° NE
USA 306 4.1 02:38:23 33° NNW 02:38:24 33° NNW 02:42:16 10° NE
DEBRIS 4.4 02:42:07 22° SE 02:42:07 22° SE 02:43:57 10° SE
ADEOS Rocket 4.3 02:34:56 10° SE 02:41:01 41° ENE 02:46:34 10° N
ADEOS II 3.1 02:41:31 10° N 02:45:20 30° NW 02:45:20 30° NW
Cosmos 1727 Rocket 4.3 02:42:11 14° S 02:47:38 69° E 02:53:55 10° NNE
Cosmos 1339 Rocket 4.4 02:47:25 43° SSW 02:49:31 71° W 02:55:43 10° N
Cosmos 990 Rocket 3.8 02:44:26 10° NNW 02:49:40 83° WSW 02:54:53 10° SSE
IDEFIX/ARIANE 42P 2.5 02:44:58 10° N 02:50:12 69° WNW 02:51:13 55° SW
CZ-4B R/B 4.4 02:48:04 10° ESE 02:50:13 17° ENE 02:52:24 10° NNE
ATLAS 2AS CENTAUR R/B 3.3 02:42:58 10° NW 02:50:29 61° NE 02:57:23 10° SE
Cosmos 921 Rocket 3.5 02:52:56 45° NNW 02:52:56 45° NNW 02:56:20 10° N
Cosmos 2360 Rocket 3.5 02:47:39 10° S 02:52:47 37° ESE 02:57:56 10° NE
Cosmos 1697 Rocket 4.1 02:56:36 21° NW 02:57:00 21° NW 03:01:14 10° N
Cosmos 468 Rocket 3.9 02:57:17 44° SSW 02:59:02 84° WNW 03:04:21 10° NNE
Celestis-02/Orion 38 4.4 02:55:38 10° SSE 03:00:52 70° WSW 03:06:02 10° NNW
Cosmos 1980 Rocket 3.1 03:02:25 30° WNW 03:03:08 31° NW 03:08:08 10° N
Cosmos 2263 Rocket 2.5 03:00:38 10° NW 03:05:56 42° WSW 03:11:13 10° S
Cosmos 44 Rocket 4.0 03:03:33 24° S 03:06:05 49° ESE 03:10:46 10° NE
Meteor 1-11 Rocket 3.6 03:01:14 10° NNW 03:07:02 84° W 03:12:39 10° S
USA 307 4.3 03:06:10 24° NW 03:07:31 30° N 03:11:18 10° NE
USA 234 3.2 03:01:11 10° SE 03:07:44 87° SSW 03:14:20 10° NW
Cosmos 1844 Rocket 3.5 03:05:11 10° NNW 03:10:42 52° ENE 03:16:13 10° SE
USA 308 4.3 03:09:21 23° NW 03:10:52 29° N 03:14:39 10° NE
Cosmos 44 4.4 03:10:35 26° NW 03:11:09 27° NW 03:15:11 10° NNE
Cosmos 2322 Rocket 2.1 03:08:23 28° SSW 03:11:32 90° NW 03:17:16 10° NNE
Meteor 1-4 Rocket 2.8 03:13:45 47° NW 03:13:45 47° NW 03:16:46 10° N
Meteor 1-27 Rocket 3.8 03:10:12 10° S 03:16:08 88° E 03:22:04 10° NNE
Cosmos 1666 2.6 03:13:06 10° NNW 03:16:53 62° W 03:18:11 37° SSW
Cosmos 1707 Rocket 3.4 03:14:39 27° SSW 03:16:58 81° W 03:21:21 10° N
CZ-2D R/B 4.2 03:13:42 10° N 03:17:34 34° WNW 03:17:38 34° WNW
Cosmos 1812 3.6 03:21:36 32° WNW 03:21:36 32° WNW 03:24:42 10° N
SL-16 R/B 2.2 03:20:04 29° SW 03:22:55 63° WNW 03:28:34 10° NNE
CZ-3B R/B 3.7 03:21:32 20° NW 03:24:00 38° N 03:35:12 10° ENE
Cosmos 1437 Rocket 4.4 03:21:55 10° SSE 03:25:23 35° E 03:28:55 10° NNE
USA 276 2.4 03:25:21 39° NW 03:26:19 62° NNE 03:29:30 10° E
Cosmos 372 Rocket 4.2 03:22:55 10° NNW 03:28:05 70° ENE 03:33:10 10° SSE
Cosmos 1536 2.7 03:25:10 10° NNW 03:29:14 65° W 03:33:15 10° S
Cosmos 2237 4.3 03:24:47 12° SSW 03:30:10 78° ESE 03:35:54 10° NNE
Cosmos 2173 Rocket 4.0 03:25:17 10° N 03:31:40 87° W 03:38:03 10° S
Cosmos 1733 Rocket 2.9 03:27:18 10° N 03:31:40 85° W 03:35:59 10° S
ATLAS CENTAUR R/B 3.7 03:22:30 10° NW 03:32:25 49° NNE 03:36:25 10° E
CZ-2C R/B 2.5 03:28:09 10° NNE 03:33:20 83° WNW 03:38:32 10° SSW
Cosmos 1898 Rocket 3.9 03:29:31 10° NW 03:34:22 38° WSW 03:39:13 10° S
ALOS 3.4 03:33:59 10° NNE 03:38:29 45° E 03:42:57 10° S
CZ-4C R/B 3.8 03:33:51 10° NNW 03:40:41 52° NE 03:48:37 10° ESE
Cosmos 2219 Rocket 3.9 03:36:25 10° SSE 03:41:25 33° ESE 03:46:27 10° NE
MSX 4.3 03:36:39 10° N 03:42:00 40° WNW 03:45:54 17° SW
Cosmos 1689 Rocket 4.4 03:41:26 10° SE 03:44:03 28° ENE 03:46:40 10° N
Cosmos 2298 Rocket 4.4 03:39:02 10° NNW 03:44:20 67° ENE 03:49:36 10° SSE
Landsat 5 4.3 03:42:41 10° SSW 03:46:43 32° W 03:50:44 10° NNW
PSLV R/B 3.6 03:43:01 10° N 03:47:07 53° WNW 03:51:00 11° SSW
Meteor 2-20 4.5 03:43:14 10° S 03:49:22 89° ESE 03:55:31 10° N
Cosmos 1862 Rocket 3.4 03:47:17 10° SSW 03:51:39 71° W 03:56:01 10° N
Cosmos 1937 Rocket 4.0 03:50:48 10° NW 03:55:24 34° WSW 03:59:59 10° SSW
H-2A R/B 3.1 03:53:39 10° SSW 03:57:20 26° W 04:01:06 10° NW
Lacrosse 5 3.6 03:53:17 10° WNW 03:57:24 24° N 04:01:31 10° NE
COSMOS 2428 4.1 03:54:25 10° S 03:59:42 40° ESE 04:05:02 10° NE
Cosmos 2208 Rocket 4.0 03:55:00 10° SSW 04:00:11 68° WNW 04:05:23 10° NNE
X-37B 2.5 03:59:50 15° SW 04:00:13 15° SSW 04:02:06 10° S
ERBS 4.2 03:58:34 13° WNW 04:00:29 19° NNW 04:03:01 10° NNE
Cosmos 841 Rocket 3.7 03:56:43 10° SW 04:01:50 54° WNW 04:07:02 10° NNE
ERS-2 2.8 03:59:11 10° SSW 04:02:28 31° W 04:05:46 10° NW
Cosmos 2016 Rocket 3.9 03:57:04 10° NNW 04:03:10 75° W 04:09:14 10° S
FALCON 9 DEB 3.9 04:01:05 18° W 04:03:18 41° NNW 04:06:35 10° NE
ARIANE 5 R/B 4.3 04:01:34 10° NNW 04:04:04 14° NW 04:05:49 12° WNW
ATLAS 5 CENTAUR R/B 4.4 04:01:40 10° NNW 04:04:05 13° NNE 04:06:41 10° NE
Cosmos 1743 2.6 04:00:58 10° NNW 04:04:44 62° W 04:08:30 10° S
Cosmos 2061 Rocket 4.0 03:58:55 10° NNW 04:05:21 74° W 04:11:44 10° S
Cosmos 1814 Rocket 4.0 04:00:52 10° SSW 04:06:02 62° WNW 04:11:18 10° NNE
CZ-2C R/B 4.5 04:04:33 10° NNW 04:06:53 16° WNW 04:08:05 14° W
Cosmos 1125 Rocket 4.0 04:01:49 10° NNW 04:07:07 65° ENE 04:12:18 10° SSE
SL-4 R/B 2.6 04:03:35 16° W 04:07:15 59° NNW 04:12:01 10° ENE
Cosmos 2333 Rocket 2.9 04:03:13 10° S 04:08:52 60° ESE 04:14:32 10° NNE
PSLV R/B 4.4 04:06:49 10° SSE 04:10:50 64° ENE 04:14:54 10° N
Cosmos 2150 Rocket 4.1 04:06:54 10° NNW 04:12:24 80° WSW 04:17:46 10° SSE
Cosmos 2233 Rocket 4.3 04:07:15 10° N 04:13:24 73° E 04:19:32 10° SSE
METEOR-M 4.3 04:09:05 10° NNE 04:14:29 82° ESE 04:19:50 10° SSW
Cosmos 2322 3.8 04:08:59 10° SSW 04:14:39 83° ESE 04:20:20 10° NNE
USA 305 4.4 04:11:05 10° NW 04:14:51 30° N 04:18:38 10° ENE
Cosmos 1544 2.9 04:11:27 10° NNW 04:15:02 68° W 04:18:35 10° S
USA 267 3.8 04:08:58 10° NE 04:15:08 46° NNW 04:21:19 10° W
NOSS 3-4 (A) 4.2 04:10:53 10° NW 04:17:31 43° WSW 04:24:45 10° S
NOSS 3-4 (C) 4.2 04:10:59 10° NW 04:17:37 43° WSW 04:24:53 10° S
COSMOS 2455 4.1 04:12:27 10° NNW 04:18:12 43° NE 04:23:55 10° ESE
USA 306 4.4 04:15:28 10° NW 04:19:15 30° N 04:23:03 10° ENE
CZ-4B R/B 2.1 04:19:27 10° SSW 04:22:16 29° W 04:25:11 10° NW
ADEOS 3.7 04:19:33 10° N 04:24:39 55° WNW 04:29:44 10° SSW
Cosmos 1725 Rocket 4.0 04:18:58 10° NNW 04:25:04 62° W 04:31:07 10° S
Cosmos 540 Rocket 4.2 04:21:43 10° SW 04:26:25 35° WNW 04:31:10 10° N
ADEOS Rocket 3.6 04:20:28 10° SSW 04:26:34 37° W 04:32:09 10° NNW
Cosmos 1975 2.7 04:23:55 10° NNW 04:27:57 79° W 04:31:56 10° S
IDEFIX/ARIANE 42P 4.5 04:27:01 10° NNW 04:28:50 12° NW 04:30:40 10° WNW
COSMO-SKYMED 1 2.6 04:24:50 10° SSE 04:29:11 85° WSW 04:33:33 10° NNW
Cosmos 2333 4.3 04:27:01 10° SSW 04:32:47 73° WNW 04:38:35 10° NNE
Meteor 1-18 Rocket 4.2 04:27:47 10° SSW 04:33:18 72° WNW 04:38:55 10° N
Meteor 1-19 Rocket 4.2 04:28:40 10° SSW 04:34:10 76° WNW 04:39:51 10° N
FENGYUN 3A 3.8 04:30:35 10° N 04:35:52 57° WNW 04:41:09 10° SSW
Cosmos 2360 Rocket 2.8 04:31:27 10° WSW 04:36:44 39° NW 04:42:03 10° NNE
